DW5542 Weather Reports


Display with metric or nautical units.
time (UTC)temp
F
wind
direction
speed
MPH
gust
MPH
rain 1hr
in
rain 24hr
in
rain mn
in
humidity
%
barometer
mb
20260510124554 73 243 1.0 5.0 0.00 0.06 0.00 58 1010.3
20260510123045 72 200 0.0 5.0 0.00 0.06 0.00 61 1010.4
20260510121542 71 157 0.0 9.0 0.00 0.06 0.00 60 1010.6
20260510120041 72 240 0.0 4.0 0.00 0.06 0.00 58 1010.9
20260510114540 71 169 0.0 8.0 0.00 0.17 0.00 59 1011.1
20260510113037 71 156 0.0 9.0 0.00 0.17 0.00 61 1011.2
20260510111551 72 171 0.0 4.0 0.00 0.17 0.00 58 1011.4
20260510110033 73 245 0.0 3.0 0.00 0.17 0.00 52 1011.4
20260510104529 71 224 0.0 2.0 0.00 0.25 0.00 55 1011.5
20260510103029 72 63 0.0 0.0 0.00 0.25 0.00 57 1011.8
20260510101523 69 127 0.0 0.0 0.00 0.25 0.00 61 1012.0
20260510100022 69 259 0.0 4.0 0.00 0.25 0.00 62 1012.1
20260510094529 68 352 0.0 8.0 0.00 0.41 0.00 63 1012.3
20260510093017 68 357 0.0 9.0 0.00 0.41 0.00 62 1012.4
20260510091520 67 331 0.0 4.0 0.00 0.41 0.00 65 1012.3
20260510090011 65 10 0.0 7.0 0.00 0.41 0.00 72 1012.4
20260510084506 64 263 0.0 7.0 0.00 0.52 0.00 78 1012.5
20260510083002 63 264 0.0 0.0 0.00 0.52 0.00 80 1012.6
20260510081628 62 262 0.0 0.0 0.00 0.52 0.00 85 1012.6
20260510080057 61 323 0.0 0.0 0.00 0.52 0.00 87 1012.6
20260510074554 60 302 0.0 0.0 0.00 0.52 0.00 88 1012.8
20260510073049 59 323 0.0 0.0 0.00 0.52 0.00 89 1012.7
20260510071548 58 328 0.0 0.0 0.00 0.52 0.00 90 1012.7
20260510070048 58 342 0.0 2.0 0.00 0.52 0.00 92 1012.6
20260510064546 57 346 0.0 0.0 0.00 0.52 0.00 93 1012.5
20260510063045 56 324 0.0 0.0 0.00 0.52 0.00 94 1012.3
20260510061545 55 324 0.0 0.0 0.00 0.52 0.00 94 1012.2
20260510060051 54 325 0.0 0.0 0.00 0.52 0.00 94 1012.1
20260510054544 53 324 0.0 0.0 0.00 0.52 0.00 94 1011.9
20260510053043 53 324 0.0 0.0 0.00 0.52 0.00 94 1011.8
20260510051557 0 0.0 0.0 0.00 0.52 0.00 1011.5
20260510050040 0 0.0 0.0 0.00 0.52 0.00 1011.4
20260510044534 0 0.0 0.0 0.00 0.52 0.00 1011.4
20260510043027 0 0.0 0.0 0.00 0.52 0.00 1011.4
20260510041528 0 0.0 0.0 0.00 0.52 0.00 1011.4
20260510040020 53 274 0.0 0.0 0.00 0.52 0.00 94 1011.3
20260510034519 54 31 0.0 0.0 0.00 0.52 0.00 94 1011.3
20260510033018 54 31 0.0 0.0 0.00 0.52 0.00 94 1011.2
20260510031517 54 11 0.0 0.0 0.00 0.52 0.00 93 1011.2
20260510030014 54 12 0.0 0.0 0.00 0.52 0.00 93 1011.2
20260510024514 54 11 0.0 0.0 0.00 0.52 0.00 94 1011.3
20260510023030 55 12 0.0 0.0 0.00 0.52 0.00 94 1011.4
20260510021511 55 334 0.0 0.0 0.00 0.52 0.00 94 1011.4
20260510020010 55 333 0.0 0.0 0.00 0.52 0.00 93 1011.4
20260510014507 55 333 0.0 0.0 0.00 0.52 0.00 94 1011.3
20260510013012 55 333 0.0 0.0 0.00 0.52 0.00 94 1011.4
20260510011512 56 333 0.0 0.0 0.00 0.52 0.00 94 1011.4
20260510010010 56 333 0.0 0.0 0.00 0.52 0.00 94 1011.5
20260510004500 56 333 0.0 0.0 0.00 0.52 0.00 94 1011.8
20260510003107 56 333 0.0 0.0 0.00 0.52 0.00 93 1011.9
20260510001557 56 334 0.0 0.0 0.00 0.52 0.00 93 1012.0
20260510000054 57 320 0.0 0.0 0.00 0.52 0.00 93 1012.0
20260509234556 57 320 0.0 0.0 0.00 0.52 0.00 93 1012.1
20260509233049 58 319 0.0 0.0 0.00 0.52 0.00 93 1012.2
20260509231558 58 319 0.0 0.0 0.00 0.52 0.00 93 1012.3
20260509230046 58 319 0.0 0.0 0.00 0.52 0.00 92 1012.4
20260509224545 59 319 0.0 0.0 0.00 0.52 0.00 92 1012.2
20260509223044 59 319 0.0 0.0 0.00 0.52 0.00 92 1012.5
20260509221541 59 319 0.0 0.0 0.00 0.52 0.00 92 1012.5
20260509220039 59 345 0.0 0.0 0.00 0.52 0.00 92 1012.8
20260509214537 58 354 0.0 0.0 0.00 0.52 0.52 91 1012.8
20260509213040 59 23 0.0 0.0 0.00 0.52 0.52 91 1012.4
20260509211601 59 36 0.0 0.0 0.00 0.52 0.52 90 1012.3
20260509210031 59 37 0.0 0.0 0.00 0.52 0.52 90 1012.3
20260509204530 60 214 0.0 0.0 0.00 0.52 0.52 89 1012.2
20260509203040 61 213 0.0 0.0 0.00 0.52 0.52 88 1012.1
20260509201529 61 213 0.0 0.0 0.00 0.52 0.52 87 1012.0
20260509200028 62 214 0.0 0.0 0.00 0.52 0.52 87 1011.5
20260509194527 62 213 0.0 0.0 0.00 0.52 0.52 86 1011.6
20260509193027 62 148 0.0 0.0 0.00 0.52 0.52 85 1011.3
20260509191527 62 128 0.0 0.0 0.00 0.52 0.52 85 1010.8
20260509190026 62 128 0.0 0.0 0.00 0.52 0.52 84 1010.9
20260509184526 63 139 0.0 0.0 0.00 0.52 0.52 83 1010.6
20260509183025 63 158 0.0 3.0 0.00 0.52 0.52 82 1010.4
20260509181524 64 162 0.0 0.0 0.00 0.52 0.52 80 1010.4
20260509180023 65 186 0.0 0.0 0.00 0.52 0.52 77 1010.2
20260509174523 66 186 0.0 5.0 0.00 0.52 0.52 78 1009.8
20260509173022 66 249 0.0 5.0 0.00 0.52 0.52 76 1009.5
20260509171521 66 158 0.0 4.0 0.00 0.52 0.52 75 1009.4
20260509170021 67 135 0.0 5.0 0.00 0.52 0.52 74 1009.2
20260509164521 67 139 0.0 4.0 0.00 0.52 0.52 74 1009.2
20260509163023 68 152 0.0 4.0 0.00 0.52 0.52 72 1009.3
20260509161519 67 143 0.0 5.0 0.00 0.52 0.52 74 1009.3
20260509160016 67 113 0.0 0.0 0.00 0.52 0.52 75 1009.3
20260509154516 66 136 0.0 4.0 0.00 0.52 0.52 76 1009.6
20260509153019 66 81 0.0 4.0 0.00 0.52 0.52 77 1009.6
20260509151510 66 80 0.0 4.0 0.00 0.52 0.52 79 1009.5
20260509150008 65 108 0.0 1.0 0.00 0.52 0.52 81 1009.6
20260509144506 64 105 0.0 3.0 0.00 0.52 0.52 83 1009.6
20260509143005 64 118 0.0 1.0 0.00 0.52 0.52 83 1009.7
20260509141601 63 105 0.0 0.0 0.00 0.52 0.52 88 1009.9
20260509140119 62 93 0.0 0.0 0.00 0.52 0.52 91 1009.8
20260509134600 61 26 0.0 0.0 0.00 0.52 0.52 93 1009.9
20260509133105 60 120 0.0 7.0 0.01 0.52 0.52 93 1008.8
20260509131556 60 104 0.0 4.0 0.03 0.52 0.52 93 1008.9
20260509130100 60 76 0.0 0.0 0.06 0.52 0.52 94 1010.0